| time (UTC) | temp F | wind direction | speed knots | gust knots | rain 1hr in | rain 24hr in | rain mn in | humidity % | barometer mb |
| 20260507154539 | 60 | 169 | 4.3 | 8.7 | 0.00 | 0.00 | 0.00 | 64 | 1014.6 |
| 20260507153027 | 59 | 164 | 4.3 | 8.7 | 0.00 | 0.00 | 0.00 | 64 | 1014.7 |
| 20260507151646 | 59 | 159 | 6.1 | 11.3 | 0.00 | 0.00 | 0.00 | 63 | 1014.7 |
| 20260507144738 | 62 | 173 | 4.3 | 9.6 | 0.00 | 0.00 | 0.00 | 64 | 1014.8 |
| 20260507141643 | 61 | 179 | 7.0 | 13.0 | 0.00 | 0.00 | 0.00 | 64 | 1015.1 |
| 20260507140029 | 62 | 214 | 7.0 | 12.2 | 0.00 | 0.00 | 0.00 | 61 | 1015.0 |
| 20260507134515 | 60 | 185 | 7.8 | 12.2 | 0.00 | 0.00 | 0.00 | 62 | 1015.0 |
| 20260507133013 | 62 | 177 | 5.2 | 13.9 | 0.00 | 0.00 | 0.00 | 60 | 1015.1 |
| 20260507130029 | 61 | 195 | 5.2 | 9.6 | 0.00 | 0.00 | 0.00 | 61 | 1015.2 |
| 20260507124511 | 61 | 174 | 7.0 | 10.4 | 0.00 | 0.00 | 0.00 | 57 | 1015.3 |
| 20260507123013 | 62 | 188 | 5.2 | 12.2 | 0.00 | 0.00 | 0.00 | 56 | 1015.4 |
| 20260507121620 | 61 | 196 | 7.0 | 12.2 | 0.00 | 0.00 | 0.00 | 59 | 1015.4 |
| 20260507120018 | 58 | 190 | 6.1 | 9.6 | 0.00 | 0.00 | 0.00 | 65 | 1015.4 |
| 20260507114514 | 59 | 209 | 5.2 | 11.3 | 0.00 | 0.00 | 0.00 | 66 | 1015.5 |
| 20260507113013 | 59 | 181 | 7.8 | 14.8 | 0.00 | 0.00 | 0.00 | 65 | 1015.5 |
| 20260507111511 | 58 | 178 | 6.1 | 12.2 | 0.00 | 0.00 | 0.00 | 67 | 1015.5 |
| 20260507104546 | 59 | 212 | 7.8 | 13.0 | 0.00 | 0.00 | 0.00 | 68 | 1015.7 |
| 20260507101545 | 57 | 191 | 4.3 | 8.7 | 0.00 | 0.00 | 0.00 | 67 | 1015.6 |
| 20260507100011 | 58 | 157 | 4.3 | 10.4 | 0.00 | 0.00 | 0.00 | 70 | 1015.6 |
| 20260507094513 | 57 | 207 | 4.3 | 14.8 | 0.00 | 0.00 | 0.00 | 70 | 1015.6 |
| 20260507093012 | 56 | 174 | 3.5 | 8.7 | 0.00 | 0.00 | 0.00 | 73 | 1015.6 |
| 20260507091514 | 56 | 178 | 3.5 | 8.7 | 0.00 | 0.00 | 0.00 | 74 | 1015.7 |
| 20260507090057 | 56 | 201 | 4.3 | 8.7 | 0.00 | 0.00 | 0.00 | 76 | 1015.7 |
| 20260507083042 | 55 | 180 | 2.6 | 7.0 | 0.00 | 0.00 | 0.00 | 81 | 1015.7 |
| 20260507080013 | 53 | 163 | 1.7 | 7.0 | 0.00 | 0.00 | 0.00 | 82 | 1015.8 |
| 20260507074517 | 52 | 136 | 1.7 | 5.2 | 0.00 | 0.00 | 0.00 | 82 | 1015.6 |
| 20260507073027 | 51 | 111 | 2.6 | 6.1 | 0.00 | 0.00 | 0.00 | 82 | 1015.6 |
| 20260507071517 | 51 | 138 | 1.7 | 6.1 | 0.00 | 0.00 | 0.00 | 83 | 1015.6 |
| 20260507070027 | 50 | 122 | 1.7 | 5.2 | 0.00 | 0.00 | 0.00 | 84 | 1015.5 |
| 20260507064523 | 49 | 113 | 1.7 | 2.6 | 0.00 | 0.00 | 0.00 | 84 | 1015.5 |
| 20260507063012 | 48 | 232 | 0.9 | 1.7 | 0.00 | 0.00 | 0.00 | 84 | 1015.6 |
| 20260507061512 | 47 | 304 | 0.9 | 3.5 | 0.00 | 0.00 | 0.00 | 85 | 1015.6 |
| 20260507060018 | 46 | 127 | 1.7 | 6.1 | 0.00 | 0.00 | 0.00 | 85 | 1015.4 |
| 20260507054511 | 46 | 111 | 1.7 | 5.2 | 0.00 | 0.00 | 0.00 | 84 | 1015.3 |
| 20260507053022 | 46 | 112 | 0.9 | 5.2 | 0.00 | 0.00 | 0.00 | 83 | 1015.2 |
| 20260507051511 | 46 | 107 | 1.7 | 6.1 | 0.00 | 0.00 | 0.00 | 83 | 1015.0 |
| 20260507050031 | 46 | 98 | 1.7 | 5.2 | 0.00 | 0.00 | 0.00 | 82 | 1015.0 |
| 20260507044513 | 46 | 118 | 2.6 | 7.0 | 0.00 | 0.00 | 0.00 | 82 | 1014.9 |
| 20260507043012 | 46 | 121 | 3.5 | 6.1 | 0.00 | 0.00 | 0.00 | 81 | 1014.9 |
| 20260507041512 | 46 | 118 | 2.6 | 5.2 | 0.00 | 0.00 | 0.00 | 81 | 1014.9 |
| 20260507040013 | 46 | 121 | 2.6 | 6.1 | 0.00 | 0.00 | 0.00 | 81 | 1015.0 |
| 20260507033014 | 47 | 96 | 2.6 | 7.0 | 0.00 | 0.00 | 0.00 | 80 | 1014.8 |
| 20260507031512 | 47 | 109 | 1.7 | 3.5 | 0.00 | 0.00 | 0.00 | 80 | 1014.8 |
| 20260507024513 | 47 | 85 | 2.6 | 4.3 | 0.00 | 0.00 | 0.00 | 79 | 1014.8 |
| 20260507023033 | 47 | 95 | 1.7 | 2.6 | 0.00 | 0.00 | 0.00 | 79 | 1014.8 |
| 20260507021539 | 47 | 94 | 2.6 | 5.2 | 0.00 | 0.00 | 0.00 | 79 | 1014.8 |
| 20260507020021 | 47 | 93 | 2.6 | 3.5 | 0.00 | 0.00 | 0.00 | 80 | 1014.8 |
| 20260507014520 | 47 | 87 | 2.6 | 5.2 | 0.00 | 0.00 | 0.00 | 80 | 1014.8 |
| 20260507013039 | 47 | 92 | 2.6 | 3.5 | 0.00 | 0.00 | 0.00 | 81 | 1014.9 |
| 20260507011545 | 47 | 95 | 2.6 | 5.2 | 0.00 | 0.00 | 0.00 | 81 | 1014.8 |
| 20260507010012 | 47 | 96 | 0.9 | 2.6 | 0.00 | 0.00 | 0.00 | 82 | 1014.8 |
| 20260507004512 | 47 | 84 | 2.6 | 3.5 | 0.00 | 0.00 | 0.00 | 80 | 1014.8 |
| 20260507003032 | 47 | 81 | 1.7 | 3.5 | 0.00 | 0.00 | 0.00 | 82 | 1014.9 |
| 20260507001512 | 47 | 81 | 1.7 | 2.6 | 0.00 | 0.00 | 0.00 | 84 | 1015.0 |
| 20260507000015 | 47 | 81 | 2.6 | 3.5 | 0.00 | 0.00 | 0.00 | 84 | 1015.0 |
| 20260506233014 | 47 | 116 | 0.9 | 1.7 | 0.00 | 0.00 | 0.00 | 85 | 1014.9 |
| 20260506231517 | 47 | 116 | 0.9 | 2.6 | 0.00 | 0.00 | 0.00 | 85 | 1014.9 |
| 20260506230015 | 47 | 101 | 2.6 | 2.6 | 0.00 | 0.00 | 0.00 | 85 | 1015.0 |
| 20260506224513 | 47 | 170 | 0.9 | 1.7 | 0.00 | 0.00 | 0.00 | 84 | 1015.0 |
| 20260506223013 | 47 | 170 | 0.9 | 2.6 | 0.00 | 0.00 | 0.00 | 83 | 1014.9 |
| 20260506221512 | 47 | 170 | 0.0 | 1.7 | 0.00 | 0.00 | 0.00 | 82 | 1014.8 |
| 20260506220016 | 48 | 100 | 0.0 | 0.0 | 0.00 | 0.00 | 0.00 | 81 | 1014.8 |
| 20260506214515 | 49 | 100 | 0.0 | 1.7 | 0.00 | 0.00 | 0.00 | 80 | 1014.8 |
| 20260506211514 | 50 | 200 | 2.6 | 4.3 | 0.00 | 0.00 | 0.00 | 79 | 1014.7 |
| 20260506210027 | 50 | 200 | 2.6 | 4.3 | 0.00 | 0.00 | 0.00 | 79 | 1014.6 |
| 20260506204532 | 51 | 207 | 3.5 | 4.3 | 0.00 | 0.00 | 0.00 | 79 | 1014.5 |
| 20260506203024 | 51 | 195 | 3.5 | 4.3 | 0.00 | 0.00 | 0.00 | 78 | 1014.5 |
| 20260506201527 | 51 | 220 | 3.5 | 5.2 | 0.00 | 0.00 | 0.00 | 76 | 1014.4 |
| 20260506200038 | 51 | 195 | 2.6 | 3.5 | 0.00 | 0.00 | 0.00 | 73 | 1014.2 |
| 20260506194517 | 51 | 67 | 0.0 | 0.0 | 0.00 | 0.00 | 0.00 | 70 | 1014.1 |
| 20260506193029 | 53 | 67 | 0.0 | 0.0 | 0.00 | 0.00 | 0.00 | 70 | 1014.0 |
| 20260506191513 | 54 | 67 | 0.9 | 1.7 | 0.00 | 0.00 | 0.00 | 67 | 1013.9 |
| 20260506184517 | 56 | 67 | 1.7 | 3.5 | 0.00 | 0.00 | 0.00 | 61 | 1013.9 |
| 20260506183029 | 56 | 67 | 2.6 | 3.5 | 0.00 | 0.00 | 0.00 | 61 | 1013.8 |
| 20260506181606 | 56 | 40 | 2.6 | 4.3 | 0.00 | 0.00 | 0.00 | 61 | 1013.8 |
| 20260506174513 | 56 | 61 | 2.6 | 3.5 | 0.00 | 0.00 | 0.00 | 57 | 1013.6 |
| 20260506170015 | 57 | 35 | 3.5 | 5.2 | 0.00 | 0.00 | 0.00 | 56 | 1013.4 |
| 20260506164518 | 57 | 67 | 3.5 | 5.2 | 0.00 | 0.00 | 0.00 | 56 | 1013.4 |
| 20260506163013 | 58 | 69 | 4.3 | 9.6 | 0.00 | 0.00 | 0.00 | 56 | 1013.5 |
| 20260506161517 | 58 | 49 | 5.2 | 7.8 | 0.00 | 0.00 | 0.00 | 54 | 1013.4 |
| 20260506160021 | 58 | 61 | 5.2 | 8.7 | 0.00 | 0.00 | 0.00 | 53 | 1013.5 |